W0QQ Weather Reports


Display with metric or nautical units.
time (UTC)temp
F
wind
direction
speed
MPH
gust
MPH
rain 1hr
in
rain 24hr
in
rain mn
in
humidity
%
barometer
mb
20260505011628 75 11 0.0 4.0 0.00 0.00 0.00 57 1001.1
20260505004626 77 215 0.0 1.0 0.00 0.00 0.00 55 1000.8
20260505003046 78 215 0.0 2.0 0.00 0.00 0.00 55 1000.6
20260505001629 79 215 0.0 3.0 0.00 0.00 0.00 55 1000.6
20260505000051 79 215 0.0 3.0 0.00 0.00 0.00 52 1000.6
20260504234633 79 226 0.0 3.0 0.00 0.00 0.00 50 1000.7
20260504233053 80 214 1.0 7.0 0.00 0.00 0.00 49 1000.7
20260504231630 80 11 2.0 9.0 0.00 0.00 0.00 50 1000.7
20260504230100 81 11 0.0 8.0 0.00 0.00 0.00 49 1000.7
20260504224508 81 11 3.0 9.0 0.00 0.00 0.00 50 1000.6
20260504223037 81 240 3.0 11.0 0.00 0.00 0.00 47 1000.6
20260504221631 80 252 4.0 11.0 0.00 0.00 0.00 49 1000.7
20260504220035 80 11 3.0 10.0 0.00 0.00 0.00 50 1000.9
20260504214624 80 11 4.0 13.0 0.00 0.00 0.00 52 1001.0
20260504213045 80 11 2.0 13.0 0.00 0.00 0.00 52 1001.2
20260504211623 81 11 6.0 15.0 0.00 0.00 0.00 52 1001.2
20260504210055 82 11 2.0 15.0 0.00 0.00 0.00 50 1001.2
20260504204632 84 192 4.0 8.0 0.00 0.00 0.00 47 1001.3
20260504203046 84 11 2.0 12.0 0.00 0.00 0.00 45 1001.6
20260504201631 84 11 4.0 17.0 0.00 0.00 0.00 47 1001.5
20260504200057 84 11 3.0 14.0 0.00 0.00 0.00 45 1001.5
20260504194631 84 11 5.0 18.0 0.00 0.00 0.00 45 1001.7
20260504193053 84 11 5.0 19.0 0.00 0.00 0.00 44 1001.7
20260504191501 83 230 6.0 13.0 0.00 0.00 0.00 47 1001.7
20260504190055 83 221 6.0 16.0 0.00 0.00 0.00 49 1001.8
20260504184526 83 11 6.0 16.0 0.00 0.00 0.00 47 1002.0
20260504183110 82 11 4.0 12.0 0.00 0.00 0.00 52 1002.0
20260504181511 82 11 4.0 13.0 0.00 0.00 0.00 48 1002.2
20260504180103 81 245 4.0 15.0 0.00 0.00 0.00 50 1002.3
20260504174515 80 228 4.0 16.0 0.00 0.00 0.00 51 1002.6
20260504173109 79 11 5.0 13.0 0.00 0.00 0.00 52 1002.6
20260504171523 79 210 6.0 14.0 0.00 0.00 0.00 50 1002.7
20260504170106 79 11 4.0 13.0 0.00 0.00 0.00 51 1002.9
20260504160111 75 11 5.0 15.0 0.00 0.00 0.00 55 1002.8
20260504150120 71 11 7.0 25.0 0.00 0.00 0.00 57 1003.0
20260504140130 65 11 3.0 14.0 0.00 0.00 0.00 64 1003.3
20260504081519 64 209 4.0 13.0 0.00 0.00 0.00 59 1004.4
20260504070123 64 11 2.0 10.0 0.00 0.00 0.00 56 1005.4
20260504060134 64 11 0.0 4.0 0.00 0.00 0.00 57 1006.3
20260504050003 63 94 0.0 2.0 0.00 0.00 0.00 64 1006.9
20260504044557 64 85 0.0 5.0 0.00 0.00 0.00 66 1007.0
20260504043018 65 11 2.0 4.0 0.00 0.00 0.00 65 1007.1
20260504041609 66 222 0.0 2.0 0.00 0.00 0.00 58 1007.0
20260504040027 67 222 0.0 2.0 0.00 0.00 0.00 56 1006.9
20260504034619 67 222 0.0 1.0 0.00 0.00 0.00 54 1006.9
20260504033029 66 204 3.0 9.0 0.00 0.00 0.00 55 1007.0
20260504031623 67 135 0.0 2.0 0.00 0.00 0.00 57 1007.2
20260504030100 67 134 0.0 1.0 0.00 0.00 0.00 57 1007.2
20260504024632 68 135 0.0 2.0 0.00 0.00 0.00 56 1007.1
20260504023041 69 135 0.0 2.0 0.00 0.00 0.00 55 1007.1
20260504021626 69 135 0.0 4.0 0.00 0.00 0.00 55 1007.2
20260504020038 70 101 0.0 1.0 0.00 0.00 0.00 53 1007.1
20260504014624 71 35 0.0 2.0 0.00 0.00 0.00 53 1007.0
20260504013037 72 33 0.0 0.0 0.00 0.00 0.00 50 1007.1